Flag for Canada Weather past 2 weeks in Eureka, Nunavut Territory, Canada

Now
-44 °F

Passing clouds.


Feels Like: -44 °F
Forecast: -42 / -34 °F
Wind: 2 mph from Northeast

Location: Eureka

Current Time: Mar 6, 2015 at 6:11:07 AM

Latest Report: Mar 6, 2015 at 5:00 AM


Visibility: 10 mi

Pressure: 29.52 "Hg

Humidity: 72%

Dew point: -49 °F

Location of EurekaLocation

Historic Weather in Eureka — Graph

°F

Eureka temperature yesterday

Maximum temperature yesterday: -45 °F (at 12:00 AM)
Minimum temperature yesterday: -47 °F (at 3:00 AM)
Average temperature yesterday: -47 °F

Past Weeks' High & Low Weather Summary

 TemperatureHumidityPressure
High-4 °F (Feb 23, 9:00 AM)89% (Feb 28, 2:00 AM)30.36 "Hg (Feb 28, 2:00 AM)
Low-51 °F (Feb 28, 3:00 AM)49% (Feb 25, 3:00 PM)29.38 "Hg (Mar 5, 8:00 AM)
Average-36 °F67%29.88 "Hg
* Reported Feb 19 5:00 AM — Mar 6 5:00 AM, Eureka, Weather by CustomWeather, © 2015

Note: Actual official high and low records may vary slightly from our data, if they occured in-between our weather recording intervals... More about our weather records

Advertising

Eureka weather history for previous 24 hours

 ConditionsComfort  
Time TempWeatherWind HumidityBarometerVisibility
5:00 AM
Fri, Mar 6
-44 °FPassing clouds.2 mph72%29.52 "Hg10 mi
4:48 AMN/APassing clouds.2 mphN/AN/A10 mi
4:00 AM-44 °FLight snow. Partly cloudy.3 mph72%29.51 "Hg10 mi
3:00 AM-44 °FLight snow. Partly cloudy.No wind72%29.50 "Hg10 mi
2:00 AM-44 °FLight snow. Partly cloudy.2 mph72%29.50 "Hg10 mi
1:00 AM-45 °FLight snow. Partly cloudy.3 mph72%29.49 "Hg10 mi
12:53 AMN/ALight snow.6 mphN/AN/A10 mi
12:00 AM-47 °FPassing clouds.3 mph71%29.48 "Hg15 mi
11:00 PM
Thu, Mar 5
-47 °FPassing clouds.2 mphN/A29.48 "Hg15 mi
10:00 PM-45 °FPassing clouds.2 mph64%29.48 "Hg15 mi
9:00 PM-45 °FPassing clouds.3 mph64%29.48 "Hg15 mi
8:00 PM-47 °FPassing clouds.5 mph80%29.47 "Hg15 mi
7:00 PM-47 °FPassing clouds.3 mph80%29.46 "Hg15 mi
6:00 PM-47 °FPassing clouds.2 mph80%29.44 "Hg15 mi
5:00 PM-45 °FPassing clouds.3 mph72%29.44 "Hg15 mi
4:00 PM-47 °FPassing clouds.2 mph80%29.43 "Hg15 mi
3:00 PM-45 °FPassing clouds.3 mph72%29.41 "Hg15 mi
2:00 PM-45 °FPassing clouds.2 mph72%29.39 "Hg15 mi
1:00 PM-47 °FPassing clouds.2 mph80%29.39 "Hg15 mi
12:00 PM-47 °FSunny.No wind80%29.39 "Hg15 mi
11:00 AM-47 °FSunny.2 mph80%29.39 "Hg15 mi
10:00 AM-47 °FSunny.2 mph80%29.38 "Hg15 mi
9:00 AM-47 °FSunny.2 mph80%29.38 "Hg15 mi
8:00 AM-47 °FSunny.2 mphN/A29.38 "Hg15 mi
7:00 AM-47 °FClear.2 mphN/A29.39 "Hg15 mi
6:00 AM-45 °FClear.3 mphN/A29.39 "Hg15 mi
Weather by CustomWeather, © 2015

See weather overviewHow to use our weather pages